Location: Narragansett
(41.4496°N, 71.4488°W)
Time: 12:04:38
(UTC+00:00)

Nauka - Visible Passes

Search period start: 18 September 2021 00:00
Search period end: 28 September 2021 00:00
Orbit: 419 x 423 km, 51.6° (Epoch: 17 September)

Date Brightness Start Highest point End Pass type
(mag) Time Alt. Az. Time Alt. Az. Time Alt. Az.
18 Sep ? 00:15:09 10° WSW 00:18:30 73° NNW 00:20:10 27° NE visible
18 Sep ? 23:28:17 10° SW 23:31:38 67° SE 23:34:59 10° ENE visible
19 Sep ? 01:05:57 10° WNW 01:08:33 23° NNW 01:08:33 23° NNW visible
20 Sep ? 00:18:39 10° W 00:21:42 31° NNW 00:23:46 17° NNE visible
20 Sep ? 23:31:28 10° WSW 23:34:42 44° NNW 23:37:58 10° NE visible
21 Sep ? 01:09:58 10° NW 01:11:51 16° NNW 01:11:51 16° NNW visible
22 Sep ? 00:22:36 10° WNW 00:25:05 19° NNW 00:26:50 13° NNE visible
22 Sep ? 23:35:14 10° WNW 23:37:59 23° NNW 23:40:46 10° NE visible
23 Sep ? 01:13:47 10° NW 01:14:45 13° NNW 01:14:45 13° NNW visible
24 Sep ? 00:26:34 10° NW 00:28:35 15° N 00:29:37 13° NNE visible
24 Sep ? 23:39:14 10° NW 23:41:26 16° N 23:43:38 10° NNE visible
25 Sep ? 01:16:59 10° NNW 01:17:27 12° NNW 01:17:27 12° NNW visible
26 Sep ? 00:30:02 10° NNW 00:32:07 15° N 00:32:16 15° N visible
26 Sep ? 23:42:58 10° NW 23:44:56 14° N 23:46:55 10° NE visible
27 Sep ? 01:19:47 10° NW 01:20:03 11° NW 01:20:03 11° NW visible
